Airfield :
LOGIN :

Register | Disclaimer

   EN    FR    IT 

 










Legend :    VFR   Marginal VFR   IFR   Intensive IFR   Very Intensive IFR
Visi :
Ceiling :
>= 8 km
>= 3000ft
5 to 8 km
1000 to 3000 ft
1500m to 5 km
500 to 1000 ft
800 to 1500m
200 to 500 ft
< 800m
< 200 ft
Symbols :   Thunderstorms  Fog  Heavy snow  Heavy precipitations  Wind > 20 kt
SIGMETs :     Misc.  Thunderstorms  Icing  Turbulence  Mountain Waves  Volcanic Ashes







- Airport Elevation : 38 ft
- IATA code : BOH
- Download approach charts


EGHH - Bournemouth

CURRENT METAR :
  • 211720Z 19006KT 9999 FEW045 22/13 Q1015

EXPIRED METARs :
  • 211650Z 19007KT 9999 FEW045 23/13 Q1015
  • 211620Z 19008KT 9999 FEW042 23/13 Q1015
  • 211550Z 19008KT 9999 FEW042 23/13 Q1015
  • 211520Z 17008KT 130V200 9999 FEW040 23/13 Q1015
  • 211450Z 18008KT 150V210 9999 FEW042 24/13 Q1014
  • 211420Z 18008KT 140V200 9999 FEW040 24/13 Q1014

TAF TAF EGHH
Valid from the 21 at 15:00 until the 22 at 00:00 UTC


211359Z 2115/2124 18008KT 9999 FEW040
ATIS : +44 1202 364 151
Met : +44 1202 364 158 (TAF)
No reported NOTAMs for that airfield.



MET'MAP, your aeronautical weather chart ! - Copyright ORBIFLY December 2007 - Disclaimer

ORBIFLY MET'MAP TEAM :

Programming & Development : Alexandra Zaïnal
Concept & Development : Baudouin d'Aumeries
Co-Development & Prog : Marc-Olivier Méhu
Technical & hardware support : Manuel Goepfert

Contact : metmap@orbifly.com




SOURCES & CREDITS :

   NOAA